sat.trackr.live / text

‹ back to catalog

STARLINK-34239

NORAD 64728 · 2025-144E

PAYLOAD ACTIVE UNKNOWN

§ Identity

Operator
Country
US
Launch date
2025-07-02
Launch site
AFETR
Launch vehicle
Mass (kg)
RCS (m²)

Purposes: comms

External: N2YO · Heavens-Above · Gunter

§ Orbital elements

Epoch: 2026-05-24T14:02:45.999168Z

Period
94.10 min
Inclination
53.1590°
Eccentricity
0.0001206
Mean motion
15.30211468 rev/d
Perigee alt
474.4 km
Apogee alt
476.0 km
Semi-major
6,853.3 km
B*
1.2780e-4
RAAN
188.3819°
Arg perigee
76.2504°
Mean anomaly
283.8631°
Rev number
5,133

§ Raw data

STARLINK-342391 64728U 25144E   26144.58525462  .00003429  00000+0  12780-3 0  99952 64728  53.1590 188.3819 0001206  76.2504 283.8631 15.30211468 51337

JSON: /api/v1/satellites/64728 · /tle

For live sub-satellite position, see the globe view (requires WebGL).

§ Visibility from observer

Set your observer location to see the next 7 days of passes ≥ 10°. The values pass through the URL so the page stays shareable.

No JS? Fill the form by hand. The geolocation button needs JavaScript.